FW3958 Weather Reports


Display with metric or nautical units.
time (UTC)temp
F
wind
direction
speed
MPH
gust
MPH
rain 1hr
in
rain 24hr
in
rain mn
in
humidity
%
barometer
mb
20260505060039 54 199 4.0 9.0 0.00 0.00 0.00 97 1015.8
20260505054558 54 211 4.0 9.0 0.00 0.00 0.00 98 1015.8
20260505053041 54 191 1.0 8.0 0.00 0.00 0.00 98 1015.9
20260505051538 54 196 4.0 9.0 0.00 0.00 0.00 97 1015.7
20260505041537 54 211 5.0 9.0 0.00 0.00 0.00 97 1015.7
20260505040035 54 332 4.0 13.0 0.00 0.00 0.00 96 1015.4
20260505034534 54 249 4.0 10.0 0.00 0.00 0.00 96 1015.4
20260505033034 54 205 6.0 11.0 0.00 0.00 0.00 96 1015.3
20260505031543 55 184 4.0 9.0 0.00 0.00 0.00 96 1015.2
20260505030035 55 233 7.0 15.0 0.00 0.00 0.00 95 1015.2
20260505024631 55 224 8.0 14.0 0.00 0.00 0.00 94 1015.0
20260505023030 56 200 6.0 14.0 0.00 0.00 0.00 93 1015.0
20260505021530 57 218 6.0 14.0 0.00 0.00 0.00 91 1015.1
20260505020032 57 199 6.0 15.0 0.00 0.00 0.00 91 1015.1
20260505014535 57 294 8.0 18.0 0.00 0.00 0.00 90 1015.2
20260505013027 58 178 10.0 18.0 0.00 0.00 0.00 91 1015.2
20260505011533 58 220 8.0 22.0 0.00 0.00 0.00 91 1015.3
20260505010029 58 211 7.0 23.0 0.00 0.00 0.00 90 1015.2
20260505004543 58 170 7.0 18.0 0.00 0.00 0.00 89 1015.2
20260505003026 58 229 11.0 19.0 0.00 0.00 0.00 90 1015.2
20260505001525 59 209 12.0 18.0 0.00 0.00 0.00 89 1015.4
20260505000036 59 147 11.0 19.0 0.00 0.00 0.00 89 1015.6
20260504234524 60 202 10.0 19.0 0.00 0.00 0.00 89 1015.3
20260504233023 59 181 12.0 19.0 0.00 0.00 0.00 89 1015.3
20260504231522 60 194 13.0 20.0 0.00 0.00 0.00 88 1015.4
20260504230021 60 186 8.0 19.0 0.00 0.00 0.00 89 1015.4
20260504224520 60 203 8.0 19.0 0.00 0.00 0.00 89 1015.6
20260504223021 60 232 13.0 20.0 0.00 0.00 0.00 88 1015.4
20260504221519 60 198 6.0 20.0 0.00 0.00 0.00 90 1015.7
20260504220019 60 188 10.0 21.0 0.00 0.00 0.00 89 1015.7
20260504214519 61 232 12.0 19.0 0.00 0.00 0.00 88 1015.6
20260504213018 60 212 12.0 21.0 0.00 0.00 0.00 87 1015.7
20260504211518 61 172 12.0 21.0 0.00 0.00 0.00 86 1015.7
20260504210021 61 203 11.0 22.0 0.00 0.00 0.00 88 1016.0
20260504204515 61 207 9.0 21.0 0.00 0.00 0.00 87 1015.7
20260504203015 61 182 11.0 21.0 0.00 0.00 0.00 86 1015.8
20260504201514 61 208 11.0 18.0 0.00 0.00 0.00 86 1015.8
20260504200014 62 204 10.0 20.0 0.00 0.00 0.00 87 1015.7
20260504194513 62 217 11.0 18.0 0.00 0.00 0.00 85 1015.8
20260504193013 62 213 11.0 19.0 0.00 0.00 0.00 85 1015.9
20260504191511 62 197 9.0 17.0 0.00 0.00 0.00 84 1015.9
20260504190010 62 197 8.0 15.0 0.00 0.00 0.00 85 1015.9
20260504184511 63 248 8.0 14.0 0.00 0.00 0.00 83 1015.9
20260504183008 63 209 6.0 12.0 0.00 0.00 0.00 85 1015.7
20260504181507 63 191 9.0 13.0 0.00 0.00 0.00 83 1015.7
20260504180008 63 202 6.0 13.0 0.00 0.00 0.00 84 1015.7
20260504174504 62 286 3.0 11.0 0.00 0.00 0.00 85 1015.4
20260504173100 62 209 7.0 13.0 0.00 0.00 0.00 84 1015.5
20260504171557 61 234 7.0 15.0 0.00 0.00 0.00 85 1015.5
20260504081538 53 195 4.0 8.0 0.00 0.00 0.00 98 1012.7